DELTA 1 DEB, 10470

Orbit data source: Space-Track

DELTA 1 DEB, 10470 is space debris in LEO originally from a launch on Thu, 14 Jul 1977 UTC launched from the Air Force Eastern Test Range (AFETR). Debris objects in space refer to the collection of defunct objects orbiting the Earth. Examples of debris include non-operational satellites, rocket bodies, and fragments generated from explosions, collisions, or faulty payload assembly.

Loading next visibility...
Identifier
10470, 1977-065EC
Orbit
LEO
Country
Flag of USUS
Related business
Manufacturer
Unknown
Mission
Spacecraft
Bus & Motor
Unknown
Mass
Unknown
Launch date (UTC)
1977-07-14 (48 years ago)
Launch vehicle
Unknown
Launch site
Air Force Eastern Test Range (AFETR)
Object type
Payload
Rocket body
Debris
Shape & HBR
Unknown shape, 0.1 m
Radar Cross Section
Medium (>0.1 m² and <1 m²)

Expand to show TLE details & history
Last TLE update: 9 hours ago

TLE from 9 hours ago
0 DELTA 1 DEB
1 10470U 77065EC  25349.81365882  .00002286  00000-0  54404-3 0  9999
2 10470  29.0997 155.1278 0594256 231.3602 123.2316 13.78418562386456
Epoch: 2025-12-15T19:31Z
TLE epoch observation values (Epoch: 2025-12-15T19:31:40.122Z)
Latitude
0.00001°
Longitude
137.50382°
Altitude
1,224.408 km
Speed
7.117 km/s
True Right ascension
10h 20m 30s
True Declination
0° 00' 00"
Sunlit
Object was in daylight at epoch
Visualization orbit readout
Latitude
Unknown
Longitude
Unknown
Altitude
Unknown
Speed
Unknown
Apparent Right ascension
Unknown
Apparent Declination
Unknown
Sunlit
N/A
Visualization observer readout
Local Sidereal Time
02:45:24
Azimuth
Unknown
Elevation
Unknown
Doppler factor
Unknown
Orbital elements
Apogee altitude
1,410.265 km
Perigee altitude
536.526 km
Semi-major axis
7,351.532 km
Eccentricity
0.05943
Inclination
29.0997°
RAAN
155.1278°
Arg. of periapsis
231.3602°
True anomaly
128.69625°
Mean anomaly
123.2316°
Eccentric anomaly
125.98664°
Mean motion
3.44331 °/min
Orbital period
104.55 mins
BSTAR
0.00054404
Loading maneuver chart data...
Computing Atmospheric mass density...

Documentation

Showing up to 5 results
|